Weather History for Ponca City, OK

Change the Weather History Date:

Thursday, October 18, 2012

  Actual Average Record
Temperature  
Mean Temperature 56 °F -  
Max Temperature 70 °F 71 °F 90 °F (2005)
Min Temperature 43 °F 46 °F 29 °F (1948)
Degree Days  
Heating Degree Days 9    
Growing Degree Days 6 (Base 50)    
Moisture  
Dew Point 17 °F    
Average Humidity 23    
Maximum Humidity 47    
Minimum Humidity 11    
Precipitation  
Precipitation 0.00 in - - ()
Sea Level Pressure  
Sea Level Pressure 29.86 in    
Wind  
Wind Speed 11 mph (WNW)    
Max Wind Speed 28 mph    
Max Gust Speed 45 mph    
Visibility 8 miles    
Events      
Averages and records for this station are not official NWS values.
T = Trace of Precipitation, MM = Missing Value Source: NWS Daily Summary

Daily Weather History Graph

Daily Weather History Graph

Search for Another Location

Airport:

Trip Planner

Search our weather history database for the weather conditions in past years. The results will help you decide how hot, cold, wet, or windy it might be!

Date:

Astronomy

Oct. 18, 2012 Rise Set
Actual Time 7:39 AM CDT 6:47 PM CDT
Civil Twilight 7:12 AM CDT 7:13 PM CDT
Nautical Twilight 6:42 AM CDT 7:43 PM CDT
Astronomical Twilight 6:12 AM CDT 8:13 PM CDT
Moon 11:16 AM CDT (10/18) 9:28 PM CDT (10/18)
Length of Visible Light 12h 00m
Length of Day
11h 08m
Waxing Crescent, 14% of the Moon is Illuminated
Oct 18
Waxing Crescent
Oct 21
First Quarter
Oct 29
Full
Nov 6
Last Quarter
Nov 13
New

Hourly Weather History & Observations

Time (CDT) Temp. Windchill Dew Point Humidity Pressure Visibility Wind Dir Wind Speed Gust Speed Precip Events Conditions
12:53 AM 50.0 °F - 23.0 °F 35% 29.83 in 10.0 mi West 5.8 mph - N/A   Clear
1:53 AM 48.0 °F - 24.1 °F 39% 29.85 in 10.0 mi Calm Calm - N/A   Clear
2:53 AM 46.9 °F - 24.1 °F 41% 29.85 in 10.0 mi West 4.6 mph - N/A   Clear
3:53 AM 43.0 °F 40.3 °F 24.1 °F 47% 29.86 in 10.0 mi West 4.6 mph - N/A   Clear
4:53 AM 45.0 °F 41.8 °F 23.0 °F 42% 29.87 in 10.0 mi West 5.8 mph - N/A   Clear
5:53 AM 44.1 °F 39.5 °F 23.0 °F 43% 29.89 in 10.0 mi West 8.1 mph - N/A   Clear
6:53 AM 44.1 °F 40.1 °F 23.0 °F 43% 29.90 in 10.0 mi West 6.9 mph - N/A   Clear
7:53 AM 45.0 °F 41.2 °F 21.9 °F 40% 29.91 in 10.0 mi West 6.9 mph - N/A   Clear
8:53 AM 48.9 °F - 23.0 °F 36% 29.91 in 10.0 mi WNW 6.9 mph - N/A   Clear
9:53 AM 60.1 °F - 16.0 °F 18% 29.92 in 10.0 mi WNW 24.2 mph 39.1 mph N/A   Clear
10:53 AM 61.0 °F - 17.1 °F 18% 29.91 in 10.0 mi NW 20.7 mph 35.7 mph N/A   Clear
11:53 AM 63.0 °F - 16.0 °F 16% 29.89 in 10.0 mi WNW 18.4 mph 35.7 mph N/A   Clear
12:53 PM 66.0 °F - 10.9 °F 12% 29.88 in 6.0 mi NW 25.3 mph 43.7 mph N/A   Haze
1:11 PM 66.2 °F - 10.4 °F 11% 29.87 in 8.0 mi NW 23.0 mph 38.0 mph N/A   Mostly Cloudy
1:53 PM 68.0 °F - 12.0 °F 11% 29.84 in 10.0 mi WNW 26.5 mph 44.9 mph N/A   Mostly Cloudy
2:53 PM 69.1 °F - 12.0 °F 11% 29.82 in 6.0 mi WNW 21.9 mph 35.7 mph N/A   Haze
3:53 PM 69.1 °F - 12.0 °F 11% 29.82 in 5.0 mi WNW 27.6 mph 38.0 mph N/A   Haze
4:53 PM 69.1 °F - 12.0 °F 11% 29.81 in 5.0 mi WNW 21.9 mph 35.7 mph N/A   Haze
5:53 PM 68.0 °F - 12.9 °F 12% 29.82 in 5.0 mi WNW 17.3 mph 36.8 mph N/A   Haze
6:53 PM 66.0 °F - 15.1 °F 14% 29.83 in 4.0 mi NW 12.7 mph 25.3 mph N/A   Haze
7:53 PM 64.9 °F - 15.1 °F 15% 29.85 in 4.0 mi NW 11.5 mph 20.7 mph N/A   Haze
8:53 PM 64.0 °F - 15.1 °F 15% 29.86 in 4.0 mi WNW 10.4 mph 19.6 mph N/A   Haze
9:53 PM 63.0 °F - 15.1 °F 16% 29.85 in 4.0 mi WNW 10.4 mph 16.1 mph N/A   Haze
10:09 PM 62.6 °F - 15.8 °F 16% 29.87 in 5.0 mi WNW 9.2 mph 17.3 mph N/A   Haze
10:53 PM 61.0 °F - 15.1 °F 17% 29.86 in 5.0 mi WNW 8.1 mph - N/A   Haze
11:53 PM 57.9 °F - 16.0 °F 19% 29.86 in 6.0 mi West 6.9 mph - N/A   Haze